TimeEST,TemperatureF,Dew PointF,Humidity,Sea Level PressureIn,VisibilityMPH,Wind Direction,Wind SpeedMPH,Gust SpeedMPH,PrecipitationIn,Events,Conditions,WindDirDegrees,DateUTC
12:53 AM,35.6,28.4,75,30.28,10.0,SSW,3.5,-,N/A,,Clear,210,2012-12-14 05:53:00
1:53 AM,34.0,28.9,82,30.31,10.0,SSW,4.6,-,N/A,,Clear,210,2012-12-14 06:53:00
2:53 AM,34.0,28.9,82,30.32,10.0,SSW,4.6,-,N/A,,Clear,210,2012-12-14 07:53:00
3:53 AM,34.0,28.9,82,30.32,10.0,SW,3.5,-,N/A,,Clear,230,2012-12-14 08:53:00
4:53 AM,30.9,27.0,85,30.34,10.0,SSW,3.5,-,N/A,,Clear,210,2012-12-14 09:53:00
5:53 AM,30.9,27.0,85,30.34,10.0,Calm,Calm,-,N/A,,Clear,0,2012-12-14 10:53:00
6:53 AM,32.0,28.0,85,30.34,10.0,SSW,3.5,-,N/A,,Clear,200,2012-12-14 11:53:00
7:53 AM,32.0,28.9,88,30.35,10.0,Variable,4.6,-,N/A,,Clear,0,2012-12-14 12:53:00
8:53 AM,36.0,30.9,82,30.36,10.0,South,3.5,-,N/A,,Clear,190,2012-12-14 13:53:00
9:53 AM,41.0,33.1,73,30.35,10.0,Calm,Calm,-,N/A,,Clear,0,2012-12-14 14:53:00
10:53 AM,45.0,33.1,63,30.36,10.0,Calm,Calm,-,N/A,,Clear,0,2012-12-14 15:53:00
11:53 AM,48.0,32.0,54,30.35,10.0,Variable,5.8,-,N/A,,Clear,0,2012-12-14 16:53:00
12:53 PM,52.0,28.9,41,30.31,10.0,Variable,4.6,-,N/A,,Clear,0,2012-12-14 17:53:00
1:53 PM,54.0,23.0,30,30.27,10.0,Calm,Calm,-,N/A,,Clear,0,2012-12-14 18:53:00
2:53 PM,55.0,23.0,29,30.25,10.0,Calm,Calm,-,N/A,,Clear,0,2012-12-14 19:53:00
3:53 PM,54.0,21.0,28,30.24,10.0,Calm,Calm,-,N/A,,Clear,0,2012-12-14 20:53:00
4:53 PM,52.0,21.0,30,30.24,10.0,Calm,Calm,-,N/A,,Clear,0,2012-12-14 21:53:00
5:53 PM,51.1,21.0,31,30.24,10.0,Calm,Calm,-,N/A,,Clear,0,2012-12-14 22:53:00
6:53 PM,48.9,19.9,32,30.23,10.0,Calm,Calm,-,N/A,,Clear,0,2012-12-14 23:53:00
7:53 PM,48.0,19.9,33,30.23,10.0,Calm,Calm,-,N/A,,Clear,0,2012-12-15 00:53:00
8:53 PM,46.9,21.0,36,30.23,10.0,East,3.5,-,N/A,,Clear,100,2012-12-15 01:53:00
9:53 PM,46.9,21.9,37,30.20,10.0,SE,5.8,-,N/A,,Clear,140,2012-12-15 02:53:00
10:53 PM,45.0,21.9,40,30.21,10.0,Calm,Calm,-,N/A,,Clear,0,2012-12-15 03:53:00
11:53 PM,46.0,24.1,42,30.18,10.0,SSE,3.5,-,N/A,,Clear,160,2012-12-15 04:53:00